Weather History for Vero Beach, FL

Change the Weather History Date:

Wednesday, October 31, 2012

  Actual Average Record
Temperature  
Mean Temperature 59 °F 73 °F  
Max Temperature 72 °F 82 °F 93 °F (1980)
Min Temperature 46 °F 65 °F 46 °F (2012)
Degree Days  
Heating Degree Days 6 0  
Month to date heating degree days 17 0  
Since 1 July heating degree days 17 3  
Cooling Degree Days 0 9  
Month to date cooling degree days 360 361  
Year to date cooling degree days 3345 3128  
Growing Degree Days 8 (Base 50)    
Moisture  
Dew Point 46 °F    
Average Humidity 69    
Maximum Humidity 100    
Minimum Humidity 37    
Precipitation  
Precipitation 0.00 in 0.11 in 3.79 in (2011)
Month to date precipitation 4.70 4.91  
Year to date precipitation 45.54 46.40  
Sea Level Pressure  
Sea Level Pressure 30.01 in    
Wind  
Wind Speed 8 mph (West)    
Max Wind Speed 21 mph    
Max Gust Speed 26 mph    
Visibility 10 miles    
Events      
T = Trace of Precipitation, MM = Missing Value Source: NWS Daily Summary

Daily Weather History Graph

Daily Weather History Graph

Search for Another Location

Airport:

Trip Planner

Search our weather history database for the weather conditions in past years. The results will help you decide how hot, cold, wet, or windy it might be!

Date:

Astronomy

Oct. 31, 2012 Rise Set
Actual Time 7:32 AM EDT 6:38 PM EDT
Civil Twilight 7:07 AM EDT 7:02 PM EDT
Nautical Twilight 6:40 AM EDT 7:29 PM EDT
Astronomical Twilight 6:12 AM EDT 7:57 PM EDT
Moon 7:57 PM EDT (10/31) 9:02 AM EDT (10/31)
Length of Visible Light 11h 54m
Length of Day
11h 05m
Full, 97% of the Moon is Illuminated
Oct 31
Full
Nov 6
Last Quarter
Nov 13
New
Nov 20
First Quarter
Nov 28
Full

Hourly Weather History & Observations

Time (EDT) Temp. Windchill Dew Point Humidity Pressure Visibility Wind Dir Wind Speed Gust Speed Precip Events Conditions
12:53 AM 52.0 °F - 46.9 °F 83% 29.98 in 10.0 mi WSW 4.6 mph - N/A   Clear
1:53 AM 51.1 °F - 46.9 °F 86% 29.99 in 10.0 mi West 5.8 mph - N/A   Clear
2:53 AM 50.0 °F - 46.9 °F 89% 29.98 in 10.0 mi West 6.9 mph - N/A   Clear
3:53 AM 51.1 °F - 48.0 °F 89% 30.00 in 10.0 mi Calm Calm - N/A   Clear
4:53 AM 48.9 °F - 46.9 °F 93% 30.01 in 10.0 mi SW 3.5 mph - N/A   Clear
5:53 AM 48.0 °F - 46.0 °F 93% 30.01 in 10.0 mi Calm Calm - N/A   Clear
6:53 AM 46.9 °F - 46.0 °F 97% 30.03 in 10.0 mi Calm Calm - N/A   Clear
7:53 AM 46.0 °F 44.8 °F 45.0 °F 96% 30.04 in 10.0 mi West 3.5 mph - N/A   Clear
8:53 AM 53.1 °F - 51.1 °F 93% 30.05 in 10.0 mi WSW 4.6 mph - N/A   Clear
9:53 AM 60.1 °F - 43.0 °F 53% 30.06 in 10.0 mi WNW 8.1 mph - N/A   Clear
10:53 AM 64.9 °F - 39.9 °F 40% 30.07 in 10.0 mi NW 15.0 mph 20.7 mph N/A   Scattered Clouds
11:53 AM 66.9 °F - 39.9 °F 37% 30.06 in 10.0 mi NW 12.7 mph 19.6 mph N/A   Clear
12:53 PM 68.0 °F - 42.1 °F 39% 30.04 in 10.0 mi WNW 11.5 mph 23.0 mph N/A   Clear
1:53 PM 70.0 °F - 45.0 °F 41% 30.01 in 10.0 mi West 15.0 mph 20.7 mph N/A   Clear
2:53 PM 70.0 °F - 45.0 °F 41% 29.99 in 10.0 mi West 15.0 mph 21.9 mph N/A   Clear
3:53 PM 71.1 °F - 46.0 °F 41% 29.98 in 10.0 mi West 12.7 mph - N/A   Clear
4:53 PM 71.1 °F - 46.0 °F 41% 29.97 in 10.0 mi West 10.4 mph - N/A   Clear
5:53 PM 69.1 °F - 46.9 °F 45% 29.98 in 10.0 mi West 11.5 mph - N/A   Clear
6:53 PM 64.9 °F - 48.0 °F 54% 29.99 in 10.0 mi West 6.9 mph - N/A   Clear
7:53 PM 60.1 °F - 50.0 °F 69% 30.00 in 10.0 mi West 4.6 mph - N/A   Clear
8:53 PM 61.0 °F - 50.0 °F 67% 30.02 in 10.0 mi WSW 5.8 mph - N/A   Clear
9:53 PM 57.9 °F - 50.0 °F 75% 30.03 in 10.0 mi West 6.9 mph - N/A   Clear
10:53 PM 59.0 °F - 51.1 °F 75% 30.04 in 10.0 mi WSW 6.9 mph - N/A   Clear